This is the latest recevied weather packets stored in our database for station/object K0WXC-1. If no packets are shown the sender has not sent any weather packets the latest 10 day(s).
| Time | Temp. | Humidity | Pressure | Rain* | Wind** | Luminosity | Snow |
|---|---|---|---|---|---|---|---|
| 1777290088 | 15.56° C | 95% | 990 hPa | 10.16 mm | 0.45 m/s, 81° | - | - |
| 1777290028 | 15.56° C | 95% | 990.2 hPa | 9.4 mm | 0.45 m/s, 54° | - | - |
| 1777289968 | 15.56° C | 95% | 990.2 hPa | 9.4 mm | 0.45 m/s, 54° | - | - |
| 1777289908 | 15.56° C | 95% | 990.2 hPa | 9.4 mm | 0.45 m/s, 54° | - | - |
| 1777289848 | 15.56° C | 95% | 990.2 hPa | 9.4 mm | 0.45 m/s, 54° | - | - |
| 1777289788 | 15.56° C | 95% | 990.2 hPa | 9.4 mm | 0.45 m/s, 54° | - | - |
| 1777289728 | 15.56° C | 95% | 991 hPa | 6.6 mm | 0.45 m/s, 163° | - | - |
| 1777289668 | 15.56° C | 95% | 991 hPa | 6.6 mm | 0.45 m/s, 163° | - | - |
| 1777289608 | 15.56° C | 95% | 991 hPa | 6.6 mm | 0.45 m/s, 163° | - | - |
| 1777289548 | 15.56° C | 95% | 991 hPa | 6.6 mm | 0.45 m/s, 163° | - | - |
| 1777289488 | 15.56° C | 95% | 991 hPa | 6.6 mm | 0.45 m/s, 163° | - | - |
| 1777289429 | 15.56° C | 94% | 990.5 hPa | 4.06 mm | 0.89 m/s, 177° | - | - |
| 1777289368 | 15.56° C | 94% | 990.5 hPa | 4.06 mm | 0.89 m/s, 177° | - | - |
| 1777289308 | 15.56° C | 94% | 990.5 hPa | 4.06 mm | 0.89 m/s, 177° | - | - |
| 1777289249 | 15.56° C | 94% | 990.5 hPa | 4.06 mm | 0.89 m/s, 177° | - | - |
| 1777289188 | 15.56° C | 94% | 990.5 hPa | 4.06 mm | 0.89 m/s, 177° | - | - |
| 1777289128 | 16.11° C | 93% | 990.3 hPa | 5.84 mm | 0.89 m/s, 270° | - | - |
| 1777289068 | 16.11° C | 93% | 990.3 hPa | 5.84 mm | 0.89 m/s, 270° | - | - |
| 1777289008 | 16.11° C | 93% | 990.3 hPa | 5.84 mm | 0.89 m/s, 270° | - | - |
| 1777288949 | 16.11° C | 93% | 990.3 hPa | 5.84 mm | 0.89 m/s, 270° | - | - |
| 1777288888 | 16.11° C | 93% | 990.3 hPa | 5.84 mm | 0.89 m/s, 270° | - | - |
| 1777288828 | 16.11° C | 92% | 990 hPa | 4.57 mm | 0.45 m/s, 145° | - | - |
| 1777288768 | 16.11° C | 92% | 990 hPa | 4.57 mm | 0.45 m/s, 145° | - | - |
| 1777288708 | 16.11° C | 92% | 990 hPa | 4.57 mm | 0.45 m/s, 145° | - | - |
| 1777288648 | 16.11° C | 92% | 990 hPa | 4.57 mm | 0.45 m/s, 145° | - | - |
* Rain latest hour (hover to see other rain measurements)
** Current wind speed in m/s (hover to see current wind gust speed)